NSZ75D EKBI-EKCH

Flight info

Callsign NSZ75D
Flight time 0h 26m
Altitude 15000
Route ABINO T56 TESPI
Aircraft B38M/M-SDE1FGHILORVWXY/HB1

Departure

Time 2026-04-23 16:54
Airport Billund Airport (EKBI)

Arrival

Time 2026-04-23 17:21
Airport Copenhagen Kastrup Airport (EKCH)
Time Latitude Longitude Altitude Speed Heading
2026-04-23 16:26 55.74530 9.14684 219 ft 0 kts 356°
2026-04-23 16:42 55.74524 9.14684 223 ft 2 kts 356°
2026-04-23 16:42 55.74505 9.14686 218 ft 3 kts 357°
2026-04-23 16:42 55.74485 9.14688 218 ft 3 kts 357°
2026-04-23 16:43 55.74469 9.14689 218 ft 3 kts
2026-04-23 16:43 55.74452 9.14679 223 ft 3 kts 49°
2026-04-23 16:43 55.74445 9.14651 220 ft 3 kts 83°
2026-04-23 16:43 55.74444 9.14632 223 ft 0 kts 87°
2026-04-23 16:44 55.74444 9.14631 218 ft 2 kts 87°
2026-04-23 16:47 55.74444 9.14632 219 ft 0 kts 87°
2026-04-23 16:47 55.74445 9.14655 219 ft 5 kts 87°
2026-04-23 16:48 55.74448 9.14743 220 ft 9 kts 87°
2026-04-23 16:48 55.74451 9.14860 219 ft 10 kts 87°
2026-04-23 16:48 55.74434 9.14962 219 ft 9 kts 140°
2026-04-23 16:48 55.74368 9.14982 219 ft 10 kts 177°
2026-04-23 16:49 55.74316 9.14987 222 ft 12 kts 176°
2026-04-23 16:49 55.74206 9.15029 218 ft 13 kts 126°
2026-04-23 16:49 55.74201 9.15195 218 ft 14 kts 88°
2026-04-23 16:49 55.74208 9.15388 219 ft 19 kts 86°
2026-04-23 16:50 55.74218 9.15674 220 ft 26 kts 86°
2026-04-23 16:50 55.74227 9.15999 219 ft 27 kts 86°
2026-04-23 16:50 55.74238 9.16337 219 ft 28 kts 86°
2026-04-23 16:50 55.74248 9.16675 219 ft 19 kts 87°
2026-04-23 16:51 55.74252 9.16836 223 ft 11 kts 87°
2026-04-23 16:51 55.74221 9.16903 219 ft 8 kts 165°
2026-04-23 16:51 55.74161 9.16911 220 ft 10 kts 176°
2026-04-23 16:51 55.74098 9.16914 219 ft 6 kts 202°
2026-04-23 16:52 55.74087 9.16864 219 ft 0 kts 266°
2026-04-23 16:52 55.74087 9.16858 219 ft 0 kts 266°
2026-04-23 16:52 55.74086 9.16841 219 ft 6 kts 266°
2026-04-23 16:53 55.74085 9.16809 221 ft 0 kts 266°
2026-04-23 16:53 55.74085 9.16808 219 ft 0 kts 266°
2026-04-23 16:53 55.74082 9.16727 222 ft 32 kts 267°
2026-04-23 16:54 55.74053 9.15797 219 ft 116 kts 266°
2026-04-23 16:54 55.73997 9.14007 390 ft 163 kts 266°
2026-04-23 16:54 55.74114 9.11997 1211 ft 174 kts 296°
2026-04-23 16:54 55.75110 9.10526 1727 ft 198 kts 345°
2026-04-23 16:55 55.76474 9.10591 2645 ft 201 kts 20°
2026-04-23 16:55 55.77626 9.12107 3183 ft 217 kts 52°
2026-04-23 16:55 55.78689 9.14247 3631 ft 246 kts 44°
2026-04-23 16:55 55.79957 9.16303 4610 ft 251 kts 43°
2026-04-23 16:56 55.81289 9.18483 5362 ft 267 kts 43°
2026-04-23 16:56 55.82659 9.20743 6315 ft 270 kts 43°
2026-04-23 16:56 55.83575 9.22264 6924 ft 275 kts 43°
2026-04-23 16:56 55.85445 9.25395 8169 ft 279 kts 43°
2026-04-23 16:57 55.86855 9.27808 9056 ft 283 kts 47°
2026-04-23 16:57 55.87607 9.29721 9533 ft 287 kts 66°
2026-04-23 16:57 55.88306 9.34244 10604 ft 294 kts 77°
2026-04-23 16:57 55.88817 9.37894 11018 ft 314 kts 78°
2026-04-23 16:58 55.89350 9.41807 11393 ft 335 kts 78°
2026-04-23 16:58 55.89726 9.44601 11653 ft 348 kts 78°
2026-04-23 16:58 55.90288 9.48831 12136 ft 361 kts 78°
2026-04-23 16:58 55.90869 9.53240 12792 ft 368 kts 79°
2026-04-23 16:59 55.91454 9.57702 13503 ft 373 kts 79°
2026-04-23 16:59 55.92048 9.62252 14152 ft 379 kts 79°
2026-04-23 16:59 55.92648 9.66864 14798 ft 384 kts 79°
2026-04-23 16:59 55.93255 9.71540 15028 ft 389 kts 79°
2026-04-23 17:00 55.93875 9.76337 15061 ft 406 kts 79°
2026-04-23 17:00 55.94520 9.81346 15063 ft 419 kts 79°
2026-04-23 17:00 55.95045 9.86474 15072 ft 421 kts 89°
2026-04-23 17:00 55.94820 9.91628 15085 ft 415 kts 108°
2026-04-23 17:01 55.93875 9.96467 15122 ft 414 kts 113°
2026-04-23 17:01 55.92937 10.01384 15114 ft 415 kts 112°
2026-04-23 17:01 55.92040 10.06217 15114 ft 414 kts 112°
2026-04-23 17:01 55.91143 10.11100 15117 ft 413 kts 112°
2026-04-23 17:02 55.90251 10.15983 15118 ft 415 kts 111°
2026-04-23 17:02 55.89356 10.20878 15123 ft 415 kts 112°
2026-04-23 17:02 55.88463 10.25759 15121 ft 415 kts 111°
2026-04-23 17:02 55.87563 10.30661 15131 ft 416 kts 111°
2026-04-23 17:03 55.86654 10.35611 15133 ft 415 kts 112°
2026-04-23 17:03 55.85752 10.40492 15126 ft 415 kts 112°
2026-04-23 17:03 55.84862 10.45303 15129 ft 415 kts 112°
2026-04-23 17:03 55.83941 10.50266 15122 ft 415 kts 112°
2026-04-23 17:04 55.83035 10.55139 15131 ft 415 kts 112°
2026-04-23 17:04 55.82127 10.60009 15128 ft 415 kts 112°
2026-04-23 17:04 55.81217 10.64879 15127 ft 414 kts 112°
2026-04-23 17:04 55.80305 10.69744 15129 ft 414 kts 112°
2026-04-23 17:05 55.79396 10.74580 15136 ft 415 kts 112°
2026-04-23 17:05 55.78476 10.79470 15138 ft 415 kts 112°
2026-04-23 17:05 55.77572 10.84245 15157 ft 399 kts 112°
2026-04-23 17:05 55.76696 10.88850 14855 ft 389 kts 112°
2026-04-23 17:06 55.75832 10.93390 14444 ft 385 kts 112°
2026-04-23 17:06 55.74989 10.97821 14027 ft 382 kts 112°
2026-04-23 17:06 55.74131 11.02321 13591 ft 378 kts 111°
2026-04-23 17:06 55.73291 11.06716 13155 ft 376 kts 111°
2026-04-23 17:07 55.72453 11.11095 12733 ft 372 kts 111°
2026-04-23 17:07 55.71622 11.15424 12313 ft 369 kts 111°
2026-04-23 17:07 55.70797 11.19710 11887 ft 366 kts 111°
2026-04-23 17:07 55.69977 11.23963 11483 ft 362 kts 111°
2026-04-23 17:08 55.69172 11.28125 11280 ft 349 kts 111°
2026-04-23 17:08 55.68406 11.32071 11135 ft 329 kts 111°
2026-04-23 17:08 55.67680 11.35796 10993 ft 308 kts 111°
2026-04-23 17:08 55.66997 11.39290 10847 ft 292 kts 112°
2026-04-23 17:09 55.66353 11.42584 10708 ft 275 kts 112°
2026-04-23 17:09 55.65743 11.45699 10569 ft 258 kts 112°
2026-04-23 17:09 55.65159 11.48676 10481 ft 258 kts 112°
2026-04-23 17:09 55.64558 11.51739 10379 ft 267 kts 112°
2026-04-23 17:10 55.63947 11.54877 10242 ft 271 kts 112°
2026-04-23 17:10 55.63330 11.58031 10033 ft 270 kts 112°
2026-04-23 17:10 55.62713 11.61172 9740 ft 271 kts 112°
2026-04-23 17:10 55.62097 11.64300 9440 ft 267 kts 112°
2026-04-23 17:11 55.61490 11.67384 9165 ft 265 kts 112°
2026-04-23 17:11 55.60882 11.70469 8862 ft 260 kts 112°
2026-04-23 17:11 55.60290 11.73470 8591 ft 257 kts 112°
2026-04-23 17:11 55.59715 11.76369 8340 ft 251 kts 112°
2026-04-23 17:12 55.59131 11.79311 8082 ft 247 kts 112°
2026-04-23 17:12 55.58564 11.82166 7817 ft 244 kts 112°
2026-04-23 17:12 55.58006 11.84969 7570 ft 238 kts 112°
2026-04-23 17:12 55.57449 11.87755 7369 ft 242 kts 112°
2026-04-23 17:13 55.56883 11.90608 7091 ft 246 kts 112°
2026-04-23 17:13 55.56311 11.93462 6807 ft 252 kts 112°
2026-04-23 17:13 55.55727 11.96384 6559 ft 250 kts 112°
2026-04-23 17:13 55.55150 11.99265 6289 ft 247 kts 112°
2026-04-23 17:14 55.54582 12.02115 5981 ft 244 kts 112°
2026-04-23 17:14 55.54069 12.04974 5678 ft 246 kts 111°
2026-04-23 17:14 55.53575 12.07858 5398 ft 245 kts 110°
2026-04-23 17:14 55.53079 12.10764 4981 ft 248 kts 110°
2026-04-23 17:15 55.52578 12.13685 4733 ft 246 kts 109°
2026-04-23 17:15 55.52082 12.16557 4525 ft 244 kts 110°
2026-04-23 17:15 55.51586 12.19425 4287 ft 244 kts 109°
2026-04-23 17:15 55.51058 12.22489 4126 ft 239 kts 110°
2026-04-23 17:16 55.50583 12.25236 3951 ft 237 kts 109°
2026-04-23 17:16 55.50101 12.28020 3743 ft 239 kts 110°
2026-04-23 17:16 55.49600 12.30865 3362 ft 245 kts 110°
2026-04-23 17:16 55.49256 12.32798 3147 ft 243 kts 110°
2026-04-23 17:17 55.48622 12.36365 3030 ft 234 kts 110°
2026-04-23 17:17 55.48134 12.39118 3020 ft 237 kts 110°
2026-04-23 17:17 55.47816 12.40956 3017 ft 236 kts 106°
2026-04-23 17:17 55.47979 12.44805 2807 ft 244 kts 70°
2026-04-23 17:18 55.50446 12.48536 2182 ft 235 kts 21°
2026-04-23 17:18 55.51929 12.49602 1868 ft 227 kts 30°
2026-04-23 17:18 55.53235 12.51044 1575 ft 216 kts 41°
2026-04-23 17:19 55.54330 12.52774 1312 ft 206 kts 45°
2026-04-23 17:19 55.55028 12.53909 1107 ft 203 kts 43°
2026-04-23 17:19 55.56360 12.55939 777 ft 182 kts 44°
2026-04-23 17:19 55.56999 12.56933 626 ft 181 kts 43°
2026-04-23 17:20 55.57894 12.58305 472 ft 160 kts 43°
2026-04-23 17:20 55.59610 12.60953 27 ft 151 kts 42°
2026-04-23 17:21 55.60583 12.62323 22 ft 33 kts 12°
2026-04-23 17:21 55.60775 12.62403 22 ft 25 kts 22°
2026-04-23 17:21 55.60926 12.62610 19 ft 13 kts 40°
2026-04-23 17:22 55.61001 12.62724 19 ft 15 kts 44°
2026-04-23 17:22 55.61167 12.62988 21 ft 18 kts 41°
2026-04-23 17:23 55.61367 12.63294 19 ft 15 kts 41°
2026-04-23 17:23 55.61451 12.63425 19 ft 17 kts 41°
2026-04-23 17:23 55.61644 12.63728 19 ft 20 kts 41°
2026-04-23 17:24 55.61754 12.63891 21 ft 21 kts 40°
2026-04-23 17:24 55.61857 12.64050 21 ft 17 kts 38°
2026-04-23 17:24 55.62086 12.64250 19 ft 19 kts 27°
2026-04-23 17:25 55.62271 12.64302 18 ft 14 kts 306°
2026-04-23 17:25 55.62332 12.64135 19 ft 17 kts 303°
2026-04-23 17:26 55.62484 12.63799 20 ft 18 kts 333°
2026-04-23 17:26 55.62686 12.63858 20 ft 12 kts 32°
2026-04-23 17:27 55.62785 12.63968 20 ft 0 kts 32°
2026-04-23 17:27 55.62790 12.63971 19 ft 1 kts 11°
2026-04-23 17:27 55.62816 12.63952 20 ft 9 kts 318°
2026-04-23 17:27 55.62841 12.63841 21 ft 5 kts 284°
2026-04-23 17:28 55.62863 12.63799 19 ft 1 kts 349°
2026-04-23 17:28 55.62877 12.63799 19 ft 3 kts
2026-04-23 17:28 55.62891 12.63804 19 ft 1 kts 11°
2026-04-23 17:28 55.62896 12.63806 19 ft 1 kts 11°
2026-04-23 17:29 55.62898 12.63806 19 ft 1 kts 11°
2026-04-23 17:29 55.62899 12.63807 19 ft 0 kts 11°